DateTimeUTC,F1_A11,F1_S11,BsB_S11,BsG_S11,BsR_S11,BbsB_S11,BbsG_S11,BbsR_S11,BaB_A11,BaG_A11,BaR_A11,Tu_S11,T_S11,Uu_S11,U_S11,P_S11,T1_A11
2021-09-19T08:00:00Z,00000200,21000000,,,,,,,-000.99,-000.95,-000.45,18.0,25.3,,00.0,0656.0,31.0
2021-09-19T08:01:00Z,00000200,21000000,,,,,,,-000.87,-000.36,-000.33,18.0,25.3,,00.0,0656.0,31.0
2021-09-19T08:02:00Z,00000200,21000000,,,,,,,0000.13,-000.05,-000.34,18.0,25.3,,00.0,0656.0,31.0
2021-09-19T08:03:00Z,00000200,61000000,,,,,,,0000.42,0000.45,0000.57,18.0,25.3,,00.0,0656.0,31.0
2021-09-19T08:04:00Z,00000200,41000000,0002.58,0001.54,0000.48,-000.09,0000.32,-000.09,0000.47,0000.07,0000.31,18.5,25.2,,00.0,0657.0,31.0
2021-09-19T08:05:00Z,00000200,01000000,0002.39,0001.71,0000.61,0000.33,0000.27,0000.15,0000.11,0000.52,-000.21,18.6,25.3,,00.0,0657.1,31.0
2021-09-19T08:06:00Z,00000200,01000000,0002.30,0001.35,0000.76,0000.70,0000.08,0000.36,0000.35,0000.18,0000.68,18.7,25.3,,00.0,0657.0,31.1
2021-09-19T08:07:00Z,00000200,01000000,0002.75,0001.44,0000.69,0000.37,0000.26,0000.06,0000.45,0000.05,0000.30,18.7,25.3,,00.0,0657.0,31.1
2021-09-19T08:08:00Z,00000200,01000000,0002.34,0001.10,0000.63,0000.07,0000.16,0000.58,0000.85,0000.87,0000.25,18.8,25.3,,00.0,0657.1,31.1
2021-09-19T08:09:00Z,00000200,01000000,0002.08,0001.51,0000.61,0000.40,0000.42,0000.28,0001.08,0000.96,0001.06,18.7,25.3,,00.0,0657.0,31.0
2021-09-19T08:10:00Z,00000200,01000000,0002.14,0001.67,0000.63,0000.72,0000.30,0000.15,0000.40,0000.35,-000.20,18.7,25.3,,00.0,0657.1,31.0
2021-09-19T08:11:00Z,00000200,01000000,0002.25,0001.31,0000.67,0000.31,0000.36,0000.15,0000.52,0000.60,0000.54,18.6,25.2,,00.0,0657.1,31.0
2021-09-19T08:12:00Z,00000200,01000000,0002.65,0001.61,0000.27,0000.59,0000.36,-000.08,0000.38,0000.60,0000.46,18.5,25.2,,00.0,0657.1,31.0
2021-09-19T08:13:00Z,00000200,01000000,0001.91,0001.44,0000.74,0000.92,0000.31,0000.08,0000.57,0000.33,0000.38,18.4,25.1,,00.0,0657.0,31.0
2021-09-19T08:14:00Z,00000200,01000000,0002.82,0001.33,0000.76,0000.17,0000.28,0000.26,0000.93,0000.54,0000.41,18.4,25.1,,00.0,0657.0,31.0
2021-09-19T08:15:00Z,00000200,01000000,0002.39,0001.22,0000.43,0000.84,0000.08,0000.19,0001.59,0001.21,0001.02,18.4,25.1,,00.0,0657.0,31.0
2021-09-19T08:16:00Z,00000200,01000000,0002.64,0001.43,0000.42,0000.10,0000.14,0000.60,0000.79,0001.16,0000.85,18.4,25.1,,00.0,0657.0,31.0
2021-09-19T08:17:00Z,00000200,01000000,0001.76,0001.47,0000.81,0000.75,0000.12,0000.19,0001.43,0000.94,0000.65,18.4,25.1,,00.0,0657.0,31.0
2021-09-19T08:18:00Z,00000200,01000000,0002.52,0001.10,0000.61,0000.74,0000.11,0000.11,0000.34,0001.15,0000.33,18.5,25.1,,00.0,0657.1,31.0
2021-09-19T08:19:00Z,00000200,01000000,0002.90,0001.44,0001.03,0000.12,0000.15,0000.43,0000.83,0000.26,0000.97,18.6,25.2,,00.0,0657.1,31.0
2021-09-19T08:20:00Z,00000200,01000000,0002.32,0001.11,0000.95,0000.31,0000.40,0000.19,0000.49,0000.54,0000.03,18.7,25.2,,00.0,0657.1,31.0
2021-09-19T08:21:00Z,00000200,01000000,0002.41,0001.35,0000.69,0000.52,0000.41,0000.16,0000.43,0000.64,0000.50,18.8,25.3,,00.0,0657.1,31.1
2021-09-19T08:22:00Z,00000200,01000000,0002.31,0001.40,0000.45,0000.37,0000.27,0000.01,0000.97,0000.48,0000.80,18.9,25.3,,00.0,0657.1,31.1
2021-09-19T08:23:00Z,00000200,01000000,0002.22,0001.80,0000.83,-000.36,0000.08,0000.49,0000.66,0000.71,0000.42,18.9,25.3,,00.0,0657.1,31.1
2021-09-19T08:24:00Z,00000200,01000000,0002.48,0001.19,0000.60,0000.99,0000.33,0000.14,0000.59,0000.82,0000.41,18.9,25.3,,00.0,0657.1,31.1
2021-09-19T08:25:00Z,00000200,01000000,0002.38,0001.08,0000.49,0000.48,0000.29,0000.24,0000.34,0000.11,0000.34,18.8,25.3,,00.0,0657.1,31.0
2021-09-19T08:26:00Z,00000200,01000000,0002.60,0001.65,0000.50,0000.41,0000.54,0000.36,-001.76,-001.88,-001.47,18.7,25.2,,00.0,0657.1,31.0
2021-09-19T08:27:00Z,00000200,01000000,0001.64,0001.85,0000.48,-000.23,0000.13,0000.23,-001.36,-001.39,-001.02,18.7,25.2,,00.0,0657.1,31.0
2021-09-19T08:28:00Z,00000200,01000000,0002.02,0001.08,0000.94,0000.77,0000.28,0000.56,-000.85,-000.39,-000.25,18.6,25.2,,00.0,0657.1,31.0
2021-09-19T08:29:00Z,00000200,01000000,0002.78,0001.53,0000.33,0000.68,0000.37,0000.21,0000.76,0000.73,0000.13,18.5,25.1,,00.0,0657.1,31.0
2021-09-19T08:30:00Z,00000200,01000000,0002.59,0001.86,0000.78,0000.43,0000.16,0000.16,0001.13,0001.01,0001.21,18.5,25.1,,00.0,0657.1,31.0
2021-09-19T08:31:00Z,00000200,01000000,0002.46,0001.59,0000.46,0000.99,0000.23,0000.20,0002.09,0001.48,0001.03,18.5,25.1,,00.0,0657.1,31.0
2021-09-19T08:32:00Z,00000200,01000000,0002.27,0001.55,0000.74,0000.14,0000.45,0000.43,0001.26,0001.71,0001.05,18.5,25.1,,00.0,0657.1,31.0
2021-09-19T08:33:00Z,00000200,01000000,0001.64,0001.30,0000.47,0000.02,0000.26,-000.11,0001.71,0001.01,0001.02,18.6,25.2,,00.0,0657.1,31.0
2021-09-19T08:34:00Z,00000200,01000000,0001.55,0001.05,0000.54,0000.51,0000.31,0000.29,0000.99,0000.78,0000.81,18.8,25.2,,00.0,0657.1,31.1
2021-09-19T08:35:00Z,00000200,01000000,0001.77,0001.27,0001.06,0000.55,0000.13,0000.43,0000.39,0000.73,0000.36,18.8,25.3,,00.0,0657.1,31.1
2021-09-19T08:36:00Z,00000200,01000000,0002.60,0001.19,0001.00,0000.62,-000.17,0000.58,0000.19,0000.27,-000.03,18.9,25.3,,00.0,0657.1,31.1
2021-09-19T08:37:00Z,00000200,01000000,0002.89,0001.16,0000.42,0000.16,0000.36,0000.30,0000.31,0000.39,0000.49,19.0,25.4,,00.0,0657.1,31.1
2021-09-19T08:38:00Z,00000200,01000000,0002.58,0001.50,0000.82,0000.63,0000.35,0000.46,-000.06,0000.05,-000.10,19.0,25.4,,00.0,0657.1,31.1
2021-09-19T08:39:00Z,00000200,01000000,0002.00,0001.08,0000.45,0000.67,-000.05,0000.23,-000.15,-000.41,0000.14,18.9,25.3,,00.0,0657.1,31.1
2021-09-19T08:40:00Z,00000200,01000000,0002.17,0001.13,0000.29,0001.15,0000.25,0000.32,0000.51,0000.77,-000.09,18.9,25.3,,00.0,0657.1,31.0
2021-09-19T08:41:00Z,00000200,01000000,0001.67,0001.19,0000.74,0000.23,0000.37,-000.13,0000.09,-000.40,0000.29,18.8,25.3,,00.0,0657.1,31.0
2021-09-19T08:42:00Z,00000200,01000000,0002.41,0001.43,0000.74,0000.38,0000.64,0000.20,0000.41,0000.48,0000.30,18.8,25.3,,00.0,0657.1,31.0
2021-09-19T08:43:00Z,00000200,01000000,0002.20,0001.19,0000.53,0001.14,0000.37,0000.36,-000.32,0000.03,-000.10,18.7,25.2,,00.0,0657.1,31.0
2021-09-19T08:44:00Z,00000200,01000000,0002.22,0001.44,0000.68,0000.50,0000.28,0000.45,0000.46,-000.04,0000.06,18.6,25.2,,00.0,0657.1,31.0
2021-09-19T08:45:00Z,00000200,01000000,0001.39,0001.31,0000.26,0000.29,0000.62,0000.11,0000.79,0000.49,0000.73,18.6,25.1,,00.0,0657.1,31.0
2021-09-19T08:46:00Z,00000200,01000000,0002.27,0000.72,0000.34,0000.56,0000.19,0000.22,0000.74,0001.19,0000.44,18.6,25.1,,00.0,0657.1,31.0
2021-09-19T08:47:00Z,00000200,01000000,0002.95,0001.12,0000.49,0000.22,0000.27,0000.17,0000.97,0000.87,0000.43,18.7,25.2,,00.0,0657.1,31.0
2021-09-19T08:48:00Z,00000200,01000000,0000.84,0000.78,0000.60,0000.71,0000.22,0000.27,0000.64,0000.81,0000.83,18.8,25.2,,00.0,0657.1,31.0
2021-09-19T08:49:00Z,00000200,01000000,0001.51,0001.13,0000.19,0000.21,0000.30,-000.01,0000.88,0000.29,0000.46,18.9,25.3,,00.0,0657.1,31.1
2021-09-19T08:50:00Z,00000200,01000000,0001.93,0001.21,0000.53,0000.29,0000.49,0000.30,0000.71,0000.46,0000.29,19.0,25.3,,00.0,0657.1,31.1
2021-09-19T08:51:00Z,00000200,01000000,0001.80,0001.12,0000.52,-000.48,-000.00,0000.12,0000.20,0000.90,0000.47,19.1,25.4,,00.0,0657.1,31.1
2021-09-19T08:52:00Z,00000200,01000000,0001.55,0001.29,0000.76,0000.21,0000.50,0000.22,0001.02,0000.21,0000.86,19.1,25.4,,00.0,0657.1,31.1
2021-09-19T08:53:00Z,00000200,01000000,0001.87,0001.04,0000.57,-000.13,-000.07,0000.31,0000.32,0000.82,-000.09,19.1,25.4,00.0,00.0,0657.1,31.1
2021-09-19T08:54:00Z,00000200,01000000,0002.53,0000.93,0000.27,0000.47,0000.09,-000.05,0000.11,-000.06,0000.23,19.0,25.4,,00.0,0657.1,31.1
2021-09-19T08:55:00Z,00000200,01000000,0001.58,0000.88,0000.28,0000.72,0000.41,0000.08,-000.03,0000.16,-000.08,18.9,25.3,,00.0,0657.1,31.0
2021-09-19T08:56:00Z,00000200,01000000,0001.65,0000.77,0000.45,0000.26,0000.26,0000.06,-000.22,-000.43,-000.47,18.8,25.3,,00.0,0657.1,31.0
2021-09-19T08:57:00Z,00000200,41000000,,,,,,,-001.57,-001.42,-000.65,18.8,25.3,,00.0,0657.1,31.0
2021-09-19T08:58:00Z,00000200,61000000,,,,,,,-000.18,0000.17,-000.42,18.4,25.4,,00.0,0656.1,31.0
2021-09-19T08:59:00Z,00000200,21000000,,,,,,,-000.15,-000.53,-000.09,18.3,25.5,,00.0,0656.1,31.0
